When you browse on this site, cookies collect data to enhance your experience and personalize the content and advertising you see.
Visit our Privacy Policy to learn more. By continuing to use the site, you agree to this use of cookies and data.

Previsão horária em Canberra

Hoje, 3 Julho, Sexta-feira

Tempo Temperatura Precipitação Vento Pressão Humidade
00:00 +4°C° 0 mm 2 m/s 710 mmHg 92%
01:00 +3°C° 0 mm 2 m/s 710 mmHg 91%
02:00 +3°C° 0 mm 2 m/s 710 mmHg 92%
03:00 +3°C° 0 mm 2 m/s 710 mmHg 92%
04:00 +2°C° 0 mm 2 m/s 709 mmHg 94%
05:00 +2°C° 0 mm 2 m/s 709 mmHg 94%
06:00 +2°C° 0 mm 2 m/s 710 mmHg 94%
07:00 +2°C° 0 mm 2 m/s 710 mmHg 94%
08:00 +2°C° 0 mm 3 m/s 710 mmHg 86%
09:00 +4°C° 0 mm 3 m/s 711 mmHg 78%
10:00 +8°C° 0 mm 3 m/s 711 mmHg 67%
11:00 +7°C° 0 mm 4 m/s 711 mmHg 62%
12:00 +8°C° 0 mm 4 m/s 710 mmHg 57%
13:00 +9°C° 0 mm 5 m/s 710 mmHg 52%
14:00 +8°C° 0 mm 5 m/s 710 mmHg 57%
15:00 +8°C° 0 mm 5 m/s 710 mmHg 61%
16:00 +7°C° 0 mm 4 m/s 710 mmHg 67%
17:00 +6°C° 0 mm 4 m/s 710 mmHg 74%
18:00 +4°C° 0 mm 4 m/s 709 mmHg 82%
19:00 +3°C° 0 mm 3 m/s 709 mmHg 90%
20:00 +3°C° 0 mm 4 m/s 709 mmHg 89%
21:00 +4°C° 0 mm 4 m/s 709 mmHg 89%
22:00 +4°C° 0 mm 4 m/s 709 mmHg 89%
23:00 +4°C° 0.5 mm 3 m/s 709 mmHg 91%

Amanhã, 4 Julho, Sábado

Tempo Temperatura Precipitação Vento Pressão Humidade
00:00 +3°C° 0.5 mm 3 m/s 709 mmHg 94%
01:00 +4°C° 0.5 mm 2 m/s 709 mmHg 96%
02:00 +3°C° 0.1 mm 3 m/s 709 mmHg 93%
03:00 +2°C° 0.1 mm 3 m/s 709 mmHg 90%
04:00 +2°C° 0.1 mm 3 m/s 710 mmHg 87%
05:00 +1°C° 0 mm 3 m/s 710 mmHg 88%
06:00 +1°C° 0 mm 2 m/s 710 mmHg 89%
07:00 -1°C° 0 mm 2 m/s 710 mmHg 90%
08:00 +2°C° 0 mm 2 m/s 711 mmHg 85%
09:00 +4°C° 0 mm 2 m/s 711 mmHg 80%
10:00 +5°C° 0 mm 2 m/s 712 mmHg 75%
11:00 +7°C° 0 mm 2 m/s 712 mmHg 68%
12:00 +8°C° 0 mm 3 m/s 711 mmHg 60%
13:00 +9°C° 0 mm 3 m/s 711 mmHg 53%
14:00 +9°C° 0 mm 3 m/s 711 mmHg 55%
15:00 +9°C° 0 mm 3 m/s 711 mmHg 58%
16:00 +9°C° 0 mm 3 m/s 711 mmHg 60%
17:00 +7°C° 0 mm 3 m/s 711 mmHg 70%
18:00 +6°C° 0 mm 2 m/s 711 mmHg 79%
19:00 +4°C° 0 mm 2 m/s 711 mmHg 89%
20:00 +3°C° 0 mm 2 m/s 711 mmHg 91%
21:00 +3°C° 0 mm 2 m/s 711 mmHg 93%
22:00 +4°C° 0 mm 1 m/s 711 mmHg 94%
23:00 +4°C° 0 mm 1 m/s 711 mmHg 95%

Depois de amanhã, 5 Julho, Domingo

Tempo Temperatura Precipitação Vento Pressão Humidade
00:00 +4°C° 0 mm 1 m/s 711 mmHg 95%
01:00 +4°C° 0 mm 1 m/s 711 mmHg 95%
02:00 +3°C° 0 mm 1 m/s 711 mmHg 96%
03:00 +3°C° 0 mm 1 m/s 711 mmHg 96%
04:00 +3°C° 0 mm 1 m/s 711 mmHg 97%
05:00 +3°C° 0 mm 1 m/s 711 mmHg 97%
06:00 +3°C° 0 mm 1 m/s 712 mmHg 97%
07:00 +1°C° 0 mm 0 m/s 712 mmHg 97%
08:00 +3°C° 0 mm 0 m/s 712 mmHg 89%
09:00 +6°C° 0 mm 0 m/s 713 mmHg 82%
10:00 +8°C° 0 mm 0 m/s 713 mmHg 74%
11:00 +10°C° 0 mm 1 m/s 713 mmHg 70%
12:00 +11°C° 0 mm 1 m/s 713 mmHg 65%
13:00 +12°C° 0 mm 2 m/s 713 mmHg 61%
14:00 +10°C° 0 mm 2 m/s 713 mmHg 64%
15:00 +10°C° 0 mm 2 m/s 713 mmHg 67%
16:00 +10°C° 0 mm 2 m/s 713 mmHg 71%
17:00 +9°C° 0 mm 1 m/s 714 mmHg 78%
18:00 +7°C° 0 mm 1 m/s 714 mmHg 85%
19:00 +6°C° 0 mm 1 m/s 714 mmHg 92%
20:00 +5°C° 0 mm 1 m/s 714 mmHg 93%
21:00 +4°C° 0 mm 1 m/s 715 mmHg 94%
22:00 +3°C° 0 mm 0 m/s 715 mmHg 95%
23:00 +3°C° 0 mm 1 m/s 715 mmHg 95%

6 Julho, Segunda-feira

Tempo Temperatura Precipitação Vento Pressão Humidade
00:00 +3°C° 0 mm 1 m/s 715 mmHg 95%
01:00 +3°C° 0 mm 1 m/s 715 mmHg 95%
02:00 +3°C° 0 mm 1 m/s 715 mmHg 94%
03:00 +3°C° 0 mm 1 m/s 715 mmHg 94%
04:00 +2°C° 0 mm 1 m/s 715 mmHg 94%
05:00 +2°C° 0 mm 1 m/s 715 mmHg 93%
06:00 +2°C° 0 mm 1 m/s 716 mmHg 93%
07:00 +2°C° 0 mm 1 m/s 716 mmHg 93%
08:00 +4°C° 0 mm 1 m/s 716 mmHg 84%
09:00 +7°C° 0 mm 1 m/s 717 mmHg 76%
10:00 +9°C° 0 mm 1 m/s 717 mmHg 67%
11:00 +10°C° 0 mm 1 m/s 717 mmHg 63%
12:00 +12°C° 0 mm 1 m/s 716 mmHg 60%
13:00 +13°C° 0 mm 2 m/s 716 mmHg 56%
14:00 +12°C° 0 mm 2 m/s 716 mmHg 60%
15:00 +12°C° 0 mm 2 m/s 716 mmHg 65%
16:00 +12°C° 0 mm 2 m/s 716 mmHg 69%
17:00 +9°C° 0 mm 1 m/s 716 mmHg 77%
18:00 +7°C° 0 mm 1 m/s 716 mmHg 85%
19:00 +5°C° 0 mm 1 m/s 716 mmHg 93%
20:00 +5°C° 0 mm 1 m/s 716 mmHg 93%
21:00 +4°C° 0 mm 1 m/s 717 mmHg 93%
22:00 +4°C° 0 mm 1 m/s 717 mmHg 93%
23:00 +3°C° 0 mm 1 m/s 716 mmHg 93%

7 Julho, Terça-feira

Tempo Temperatura Precipitação Vento Pressão Humidade
00:00 +3°C° 0 mm 1 m/s 716 mmHg 93%
01:00 +3°C° 0 mm 1 m/s 716 mmHg 94%
02:00 +3°C° 0 mm 1 m/s 716 mmHg 93%
03:00 +2°C° 0 mm 1 m/s 716 mmHg 93%
04:00 +2°C° 0 mm 1 m/s 716 mmHg 93%
05:00 +2°C° 0 mm 1 m/s 716 mmHg 93%
06:00 +2°C° 0 mm 1 m/s 717 mmHg 93%
07:00 +1°C° 0 mm 1 m/s 717 mmHg 92%
08:00 +4°C° 0 mm 1 m/s 717 mmHg 83%
09:00 +6°C° 0 mm 1 m/s 717 mmHg 73%
10:00 +9°C° 0 mm 1 m/s 718 mmHg 64%
11:00 +10°C° 0 mm 1 m/s 717 mmHg 59%
12:00 +12°C° 0 mm 1 m/s 717 mmHg 54%
13:00 +13°C° 0 mm 1 m/s 716 mmHg 49%
14:00 +13°C° 0 mm 1 m/s 716 mmHg 53%
15:00 +12°C° 0 mm 1 m/s 716 mmHg 57%
16:00 +11°C° 0 mm 0 m/s 716 mmHg 61%
17:00 +10°C° 0 mm 1 m/s 716 mmHg 69%
18:00 +8°C° 0 mm 1 m/s 716 mmHg 76%
19:00 +6°C° 0 mm 1 m/s 716 mmHg 83%
20:00 +5°C° 0 mm 1 m/s 716 mmHg 86%
21:00 +5°C° 0 mm 1 m/s 716 mmHg 89%
22:00 +4°C° 0 mm 1 m/s 716 mmHg 92%
23:00 +4°C° 0 mm 1 m/s 716 mmHg 92%

8 Julho, Quarta-feira

Tempo Temperatura Precipitação Vento Pressão Humidade
00:00 +4°C° 0 mm 1 m/s 716 mmHg 93%
01:00 +3°C° 0 mm 1 m/s 715 mmHg 94%
02:00 +3°C° 0 mm 1 m/s 715 mmHg 94%
03:00 +3°C° 0 mm 1 m/s 715 mmHg 94%
04:00 +3°C° 0 mm 1 m/s 715 mmHg 94%
05:00 +3°C° 0 mm 1 m/s 715 mmHg 94%
06:00 +3°C° 0 mm 1 m/s 715 mmHg 95%
07:00 +3°C° 0 mm 1 m/s 716 mmHg 95%
08:00 +5°C° 0 mm 1 m/s 716 mmHg 88%
09:00 +7°C° 0 mm 1 m/s 716 mmHg 82%
10:00 +10°C° 0 mm 1 m/s 716 mmHg 75%
11:00 +11°C° 0 mm 1 m/s 716 mmHg 70%
12:00 +12°C° 0 mm 1 m/s 715 mmHg 65%
13:00 +13°C° 0 mm 1 m/s 715 mmHg 60%
14:00 +13°C° 0 mm 1 m/s 714 mmHg 62%
15:00 +12°C° 0 mm 1 m/s 714 mmHg 64%
16:00 +12°C° 0 mm 1 m/s 714 mmHg 67%
17:00 +10°C° 0 mm 1 m/s 714 mmHg 72%
18:00 +8°C° 0 mm 0 m/s 714 mmHg 78%
19:00 +6°C° 0 mm 0 m/s 715 mmHg 83%
20:00 +5°C° 0 mm 0 m/s 715 mmHg 87%
21:00 +5°C° 0 mm 0 m/s 715 mmHg 90%
22:00 +5°C° 0 mm 1 m/s 715 mmHg 93%
23:00 +5°C° 0 mm 1 m/s 715 mmHg 94%
Mostrar mais